period_start,C,m1,H,J0,J1,J2,J3,J4,J5,JA,JB,JC,JD,JJ,JK,JN,#
2017-04-24 00:03:01,-0.07,2.50,0.00,24.58,27.41,30.23,14.59,48.96,1027.35,2029.42,2571.06,2462.77,2819.03,600.19,599.30,30.58,0000 0000 0000 0000 000000
2017-04-24 00:08:02,0.04,2.50,0.00,24.56,27.43,30.23,14.53,48.98,1027.32,2029.03,2570.48,2462.04,2818.51,599.98,599.29,30.63,0000 0000 0000 0000 000000
2017-04-24 00:13:03,0.06,2.50,0.00,24.53,27.46,30.24,14.60,48.96,1027.21,2029.01,2569.25,2461.43,2817.83,600.13,599.18,30.68,0000 0000 0000 0000 000000
2017-04-24 00:18:05,0.03,2.50,0.00,24.55,27.48,30.27,14.61,49.04,1027.09,2029.00,2568.83,2461.00,2817.06,600.13,599.29,30.73,0000 0000 0000 0000 000000
2017-04-24 00:23:06,0.09,2.51,0.00,24.56,27.50,30.27,14.55,48.98,1027.01,2029.00,2567.52,2460.24,2816.31,600.00,598.91,30.78,0000 0000 0000 0000 000000
2017-04-24 00:28:07,0.03,2.51,0.00,24.55,27.52,30.27,14.51,48.91,1026.92,2029.00,2566.51,2459.91,2815.83,599.75,598.90,30.83,0000 0000 0000 0000 000000
2017-04-24 00:33:09,0.06,2.51,0.00,24.58,27.55,30.28,14.60,48.91,1026.92,2028.99,2565.80,2459.16,2815.10,599.86,598.60,30.88,0000 0000 0000 0000 000000
2017-04-24 00:38:10,0.05,2.51,0.00,24.60,27.56,30.30,14.43,48.87,1026.95,2028.98,2564.83,2458.75,2814.40,599.74,598.64,30.93,0000 0000 0000 0000 000000
2017-04-24 00:43:11,0.03,2.52,0.00,24.62,27.58,30.32,14.56,48.89,1027.07,2028.91,2564.28,2458.03,2813.99,600.18,599.07,30.98,0000 0000 0000 0000 000000
2017-04-24 00:48:12,0.00,2.52,0.00,24.66,27.61,30.32,14.50,48.96,1027.02,2028.47,2563.68,2457.57,2813.27,600.10,598.83,31.03,0000 0000 0000 0000 000000
2017-04-24 00:53:13,0.07,2.52,0.00,24.69,27.62,30.32,14.50,48.77,1026.92,2028.49,2562.24,2456.99,2812.29,600.00,598.66,31.08,0000 0000 0000 0000 000000
2017-04-24 00:58:15,0.01,2.52,0.00,24.71,27.65,30.33,14.49,48.86,1026.88,2028.13,2561.75,2456.31,2811.89,600.13,598.73,31.13,0000 0000 0000 0000 000000
2017-04-24 01:03:16,0.03,2.52,0.00,24.72,27.67,30.31,14.50,48.97,1026.88,2028.04,2561.05,2455.95,2811.12,600.03,598.50,31.18,0000 0000 0000 0000 000000
2017-04-24 01:08:17,0.04,2.52,0.00,24.76,27.70,30.34,14.51,48.95,1026.87,2028.00,2560.76,2455.19,2810.80,600.01,598.50,31.23,0000 0000 0000 0000 000000
2017-04-24 01:13:18,0.04,2.53,0.00,24.80,27.72,30.36,14.56,48.96,1026.87,2028.00,2560.01,2454.82,2810.04,600.16,598.44,31.28,0000 0000 0000 0000 000000
2017-04-24 01:18:20,0.06,2.53,0.00,24.85,27.74,30.38,14.46,48.97,1026.87,2028.00,2559.37,2454.06,2809.44,599.63,598.03,31.33,0000 0000 0000 0000 000000
2017-04-24 01:23:21,0.07,2.53,0.00,24.90,27.76,30.39,14.44,48.92,1026.87,2027.99,2558.61,2453.51,2808.63,599.80,598.02,31.38,0000 0000 0000 0000 000000
2017-04-24 01:28:22,0.02,2.53,0.00,24.98,27.79,30.40,14.47,48.93,1026.86,2027.85,2557.71,2452.83,2807.87,600.09,598.21,31.44,0000 0000 0000 0000 000000
2017-04-24 01:33:23,0.02,2.54,0.00,25.04,27.82,30.44,14.50,48.93,1026.81,2027.44,2556.50,2452.00,2806.93,599.92,597.67,31.49,0000 0000 0000 0000 000000
2017-04-24 01:38:25,0.06,2.54,0.00,25.11,27.84,30.45,14.47,48.99,1026.69,2027.12,2555.46,2451.19,2806.04,599.89,597.55,31.54,0000 0000 0000 0000 000000
2017-04-24 01:43:26,0.07,2.54,0.00,25.17,27.87,30.48,14.46,48.89,1026.62,2027.02,2554.22,2450.40,2805.11,599.91,597.44,31.59,0000 0000 0000 0000 000000
2017-04-24 01:48:27,0.05,2.54,0.00,25.24,27.90,30.51,14.53,48.86,1026.46,2027.01,2553.14,2449.81,2804.20,600.25,597.57,31.64,0000 0000 0000 0000 000000
2017-04-24 01:53:28,0.07,2.55,0.00,25.30,27.94,30.57,14.45,48.96,1026.42,2027.00,2552.13,2449.00,2803.32,600.12,597.21,31.69,0000 0000 0000 0000 000000
2017-04-24 01:58:29,0.08,2.55,0.00,25.35,27.97,30.60,14.43,49.00,1026.39,2026.99,2550.95,2448.14,2802.40,599.91,597.00,31.74,0000 0000 0000 0000 000000
2017-04-24 02:03:31,0.08,2.56,0.00,25.40,28.00,30.64,14.41,48.98,1026.38,2026.97,2549.62,2447.34,2801.41,600.05,596.98,31.79,0000 0000 0000 0000 000000
2017-04-24 02:08:32,0.06,2.56,0.00,25.44,28.03,30.67,14.45,48.90,1026.38,2026.85,2548.42,2446.49,2800.42,599.92,596.77,31.84,0000 0000 0000 0000 000000
2017-04-24 02:13:33,0.00,2.56,0.00,25.46,28.06,30.72,14.51,48.98,1026.38,2026.25,2547.26,2445.67,2799.45,600.26,596.89,31.89,0000 0000 0000 0000 000000
2017-04-24 02:18:34,0.06,2.56,0.00,25.49,28.09,30.77,14.38,48.88,1026.38,2026.02,2545.95,2444.83,2798.42,599.51,596.47,31.94,0000 0000 0000 0000 000000
2017-04-24 02:23:35,0.07,2.57,0.00,25.50,28.12,30.81,14.40,48.91,1026.38,2026.01,2544.75,2444.04,2797.45,600.13,596.82,31.99,0000 0000 0000 0000 000000
2017-04-24 02:28:37,0.08,2.57,0.00,25.52,28.15,30.84,14.53,48.89,1026.38,2026.00,2543.59,2443.22,2796.60,600.27,596.91,32.04,0000 0000 0000 0000 000000
2017-04-24 02:33:38,0.08,2.57,0.00,25.56,28.17,30.86,14.45,48.74,1026.38,2026.00,2542.31,2442.40,2795.65,600.14,596.82,32.09,0000 0000 0000 0000 000000
2017-04-24 02:38:39,0.06,2.58,0.00,25.61,28.19,30.91,14.34,48.77,1026.38,2025.97,2541.23,2441.72,2794.74,599.51,596.09,32.14,0000 0000 0000 0000 000000
2017-04-24 02:43:40,0.07,2.58,0.00,25.64,28.22,30.94,14.36,48.77,1026.38,2025.92,2540.09,2440.92,2793.78,599.80,596.20,32.19,0000 0000 0000 0000 000000
2017-04-24 02:48:42,0.06,2.59,0.00,25.69,28.24,31.00,14.45,48.73,1026.38,2025.89,2538.94,2440.06,2792.94,600.02,596.45,32.24,0000 0000 0000 0000 000000
2017-04-24 02:53:43,0.01,2.59,0.00,25.72,28.27,31.04,14.41,48.84,1026.38,2025.44,2537.90,2439.35,2792.07,599.78,596.15,32.29,0000 0000 0000 0000 000000
2017-04-24 02:58:45,0.05,2.59,0.00,25.76,28.30,31.08,14.48,48.71,1026.36,2025.05,2536.86,2438.55,2791.13,600.38,596.64,32.34,0000 0000 0000 0000 000000
2017-04-24 03:03:46,0.06,2.59,0.00,25.77,28.32,31.09,14.34,48.73,1026.31,2025.00,2535.85,2437.82,2790.16,599.69,595.82,32.39,0000 0000 0000 0000 000000
2017-04-24 03:08:47,0.07,2.60,0.00,25.81,28.35,31.13,14.44,48.67,1026.21,2025.00,2534.68,2437.04,2789.29,599.89,595.98,32.44,0000 0000 0000 0000 000000
2017-04-24 03:13:49,0.08,2.60,0.00,25.83,28.38,31.15,14.40,48.81,1025.99,2025.00,2533.56,2436.19,2788.35,599.99,595.86,32.49,0000 0000 0000 0000 000000
2017-04-24 03:18:50,0.08,2.60,0.00,25.85,28.41,31.20,14.44,48.62,1026.01,2024.99,2532.28,2435.32,2787.41,600.10,595.92,32.54,0000 0000 0000 0000 000000
2017-04-24 03:23:52,0.08,2.61,0.00,25.86,28.43,31.20,14.54,48.78,1026.10,2024.96,2530.91,2434.48,2786.34,600.37,596.16,32.59,0000 0000 0000 0000 000000
2017-04-24 03:28:53,0.04,2.61,0.00,25.89,28.46,31.25,14.38,48.85,1026.13,2024.78,2529.69,2433.71,2785.36,599.65,595.47,32.64,0000 0000 0000 0000 000000
2017-04-24 03:33:54,0.03,2.61,0.00,25.94,28.49,31.29,14.35,48.61,1026.19,2024.35,2528.37,2432.84,2784.38,599.83,595.70,32.69,0000 0000 0000 0000 000000
2017-04-24 03:38:55,0.04,2.61,0.00,25.98,28.51,31.31,14.40,48.69,1026.16,2024.01,2527.57,2432.05,2783.58,600.00,595.57,32.74,0000 0000 0000 0000 000000
2017-04-24 03:43:57,0.06,2.62,0.00,26.00,28.54,31.32,14.49,48.74,1026.16,2024.01,2526.53,2431.33,2782.65,600.55,596.14,32.80,0000 0000 0000 0000 000000
2017-04-24 03:48:58,0.08,2.62,0.00,26.04,28.57,31.35,14.41,48.73,1026.18,2024.00,2525.38,2430.56,2781.68,599.86,595.39,32.85,0000 0000 0000 0000 000000
2017-04-24 03:53:59,0.07,2.63,0.00,26.09,28.60,31.39,14.44,48.73,1026.09,2024.00,2524.07,2429.75,2780.63,600.18,595.45,32.90,0000 0000 0000 0000 000000
2017-04-24 03:59:01,0.06,2.63,0.00,26.12,28.63,31.42,14.39,48.73,1026.13,2023.99,2522.95,2428.93,2779.69,599.78,595.12,32.95,0000 0000 0000 0000 000000
2017-04-24 04:04:02,0.06,2.63,0.00,26.16,28.66,31.46,14.48,48.74,1026.25,2023.90,2521.80,2428.09,2778.77,600.01,595.32,33.00,0000 0000 0000 0000 000000
2017-04-24 04:09:03,0.03,2.64,0.00,26.20,28.69,31.49,14.42,48.78,1026.19,2023.50,2520.70,2427.24,2777.80,599.93,594.96,33.05,0000 0000 0000 0000 000000
2017-04-24 04:14:05,0.06,2.64,0.00,26.23,28.72,31.51,14.38,48.81,1026.14,2023.11,2519.44,2426.35,2776.84,599.67,594.89,33.10,0000 0000 0000 0000 000000
2017-04-24 04:19:06,0.07,2.64,0.00,26.25,28.75,31.54,14.40,48.70,1025.99,2023.02,2518.23,2425.52,2775.83,599.70,594.71,33.15,0000 0000 0000 0000 000000
2017-04-24 04:24:07,0.08,2.65,0.00,26.27,28.78,31.56,14.38,48.74,1025.91,2023.00,2516.92,2424.71,2774.79,600.02,594.85,33.20,0000 0000 0000 0000 000000
2017-04-24 04:29:08,0.10,2.65,0.00,26.29,28.81,31.62,14.32,48.63,1025.90,2023.00,2515.51,2423.75,2773.64,599.79,594.62,33.25,0000 0000 0000 0000 000000
2017-04-24 04:34:09,0.08,2.66,0.00,26.32,28.84,31.63,14.36,48.71,1025.90,2022.98,2514.04,2422.81,2772.57,599.89,594.73,33.30,0000 0000 0000 0000 000000
2017-04-24 04:39:10,0.07,2.66,0.00,26.34,28.87,31.65,14.37,48.75,1025.90,2022.96,2512.55,2421.98,2771.41,600.01,594.79,33.35,0000 0000 0000 0000 000000
2017-04-24 04:44:12,0.06,2.66,0.00,26.37,28.90,31.68,14.39,48.76,1025.89,2022.76,2511.42,2421.10,2770.48,600.01,594.64,33.40,0000 0000 0000 0000 000000
2017-04-24 04:49:13,0.00,2.66,0.00,26.39,28.93,31.71,14.39,48.77,1025.89,2022.21,2510.51,2420.22,2769.60,599.68,594.39,33.45,0000 0000 0000 0000 000000
2017-04-24 04:54:15,0.07,2.67,0.00,26.40,28.96,31.74,14.34,48.87,1025.89,2022.03,2509.53,2419.42,2768.67,599.89,594.52,33.50,0000 0000 0000 0000 000000
2017-04-24 04:59:16,0.08,2.67,0.00,26.42,28.99,31.77,14.36,48.75,1025.88,2022.01,2508.11,2418.52,2767.59,599.76,594.36,33.55,0000 0000 0000 0000 000000
2017-04-24 05:04:18,0.07,2.67,0.00,26.44,29.01,31.80,14.44,48.91,1025.86,2022.00,2506.79,2417.77,2766.62,600.22,594.83,33.60,0000 0000 0000 0000 000000
2017-04-24 05:09:19,0.07,2.68,0.00,26.45,29.04,31.82,14.39,48.69,1025.82,2022.00,2505.70,2416.93,2765.69,599.94,594.60,33.66,0000 0000 0000 0000 000000
2017-04-24 05:14:21,0.08,2.68,0.00,26.47,29.06,31.85,14.42,48.77,1025.81,2021.98,2504.21,2416.01,2764.56,600.21,594.61,33.71,0000 0000 0000 0000 000000
2017-04-24 05:19:22,0.06,2.69,0.00,26.49,29.09,31.87,14.37,48.73,1025.77,2021.92,2503.42,2415.13,2763.74,599.72,594.26,33.76,0000 0000 0000 0000 000000
2017-04-24 05:24:23,0.09,2.69,0.00,26.49,29.11,31.88,14.38,48.72,1025.57,2021.81,2501.73,2414.26,2762.58,600.42,594.63,33.81,0000 0000 0000 0000 000000
2017-04-24 05:29:25,0.05,2.69,0.00,26.49,29.14,31.89,14.41,48.73,1025.60,2021.46,2500.42,2413.36,2761.57,599.86,593.99,33.86,0000 0000 0000 0000 000000
2017-04-24 05:34:26,0.04,2.70,0.00,26.51,29.16,31.90,14.42,48.77,1025.46,2021.08,2499.48,2412.61,2760.63,600.40,594.62,33.91,0000 0000 0000 0000 000000
2017-04-24 05:39:27,0.06,2.70,0.00,26.53,29.18,31.93,14.36,48.59,1025.42,2021.01,2498.24,2411.80,2759.74,600.07,594.23,33.96,0000 0000 0000 0000 000000
2017-04-24 05:44:29,0.09,2.70,0.00,26.54,29.20,31.95,14.42,48.63,1025.41,2021.00,2496.91,2410.88,2758.67,600.43,594.65,34.01,0000 0000 0000 0000 000000
2017-04-24 05:49:30,0.08,2.71,0.00,26.57,29.22,31.97,14.39,48.71,1025.41,2021.00,2495.62,2410.03,2757.57,600.30,594.32,34.06,0000 0000 0000 0000 000000
2017-04-24 05:54:31,0.06,2.71,0.00,26.56,29.24,31.99,14.39,48.69,1025.41,2021.00,2494.82,2409.23,2756.80,599.94,593.93,34.11,0000 0000 0000 0000 000000
2017-04-24 05:59:32,0.10,2.72,0.00,26.25,29.25,32.05,14.46,48.82,1025.41,2021.00,2493.33,2408.40,2755.69,600.20,594.92,34.16,0000 0000 0000 0000 000000
2017-04-24 06:04:34,0.07,2.72,0.00,25.78,29.25,32.20,14.52,48.91,1025.38,2020.99,2491.86,2407.73,2754.76,600.09,595.76,34.21,0000 0000 0000 0000 000000
2017-04-24 06:09:35,0.06,2.72,0.00,25.29,29.23,32.45,14.50,48.99,1025.15,2020.99,2490.67,2406.99,2753.94,600.02,596.36,34.26,0000 0000 0000 0000 000000
2017-04-24 06:14:36,0.08,2.73,0.00,24.93,29.19,32.52,14.57,49.08,1025.00,2020.99,2489.49,2406.26,2753.09,599.98,597.03,34.31,0000 0000 0000 0000 000000
2017-04-24 06:19:38,0.03,2.73,0.00,24.98,29.13,32.34,14.54,48.99,1024.93,2021.02,2488.56,2405.98,2752.50,599.88,596.84,34.36,0000 0000 0000 0000 000000
2017-04-24 06:24:39,0.07,2.73,0.00,25.06,29.07,32.27,14.55,49.05,1024.92,2021.28,2488.06,2405.48,2752.05,599.92,596.74,34.41,0000 0000 0000 0000 000000
2017-04-24 06:29:40,0.10,2.74,0.00,25.13,29.01,32.03,14.55,48.92,1024.92,2021.92,2487.20,2405.01,2751.81,599.83,596.43,34.46,0000 0000 0000 0000 000000
2017-04-24 06:34:41,0.05,2.74,0.00,25.05,28.95,31.82,14.51,49.04,1024.90,2021.99,2486.29,2404.72,2751.07,599.79,596.55,34.51,0000 0000 0000 0000 000000
2017-04-24 06:39:42,0.04,2.74,0.00,25.08,28.88,31.62,14.53,49.08,1024.84,2022.01,2485.66,2404.05,2750.90,600.08,596.78,34.57,0000 0000 0000 0000 000000
2017-04-24 06:44:43,0.12,2.75,0.00,25.03,28.81,31.49,14.52,49.13,1024.67,2022.41,2484.40,2403.79,2750.09,599.90,596.51,34.62,0000 0000 0000 0000 000000
2017-04-24 06:49:45,0.09,2.76,0.00,25.10,28.74,31.38,14.44,49.12,1024.77,2022.94,2483.50,2403.07,2749.71,600.16,596.69,34.67,0000 0000 0000 0000 000000
2017-04-24 06:54:46,0.03,2.76,0.00,25.08,28.67,31.32,14.45,49.05,1024.64,2023.00,2482.55,2402.96,2749.03,599.67,596.31,34.72,0000 0000 0000 0000 000000
2017-04-24 06:59:48,0.07,2.76,0.00,25.03,28.60,31.26,14.44,48.84,1024.50,2023.09,2481.83,2402.34,2748.69,599.99,596.65,34.77,0000 0000 0000 0000 000000
2017-04-24 07:04:49,0.12,2.77,0.00,25.10,28.53,31.21,14.46,49.07,1024.44,2023.74,2480.75,2401.99,2748.01,599.88,596.20,34.82,0000 0000 0000 0000 000000
2017-04-24 07:09:50,0.08,2.77,0.00,25.13,28.46,31.18,14.46,48.99,1024.43,2023.98,2479.67,2401.42,2747.31,600.24,596.64,34.87,0000 0000 0000 0000 000000
2017-04-24 07:14:51,0.02,2.77,0.00,25.15,28.39,31.10,14.53,48.98,1024.43,2024.03,2479.07,2401.02,2747.01,599.99,596.31,34.92,0000 0000 0000 0000 000000
2017-04-24 07:19:52,0.10,2.78,0.00,25.12,28.32,31.00,14.42,49.01,1024.43,2024.41,2478.57,2400.95,2746.78,599.82,596.08,34.97,0000 0000 0000 0000 000000
2017-04-24 07:24:54,0.10,2.78,0.00,25.13,28.26,30.97,14.57,48.98,1024.43,2024.95,2477.53,2400.18,2746.05,600.30,596.63,35.02,0000 0000 0000 0000 000000
2017-04-24 07:29:55,0.05,2.79,0.00,25.01,28.19,30.91,14.46,49.02,1024.28,2025.00,2476.25,2399.98,2745.31,599.91,596.48,35.07,0000 0000 0000 0000 000000
2017-04-24 07:34:56,0.06,2.79,0.00,24.73,28.14,30.99,14.47,49.05,1024.02,2025.06,2475.45,2399.29,2744.99,599.91,596.79,35.12,0000 0000 0000 0000 000000
2017-04-24 07:39:57,0.06,2.79,0.00,24.59,28.08,30.94,14.52,49.17,1023.96,2025.27,2475.01,2398.99,2744.42,599.82,596.99,35.17,0000 0000 0000 0000 000000
2017-04-24 07:44:58,0.12,2.80,0.00,24.55,28.02,30.86,14.57,49.08,1023.94,2025.87,2474.12,2398.30,2743.98,600.27,597.43,35.22,0000 0000 0000 0000 000000
2017-04-24 07:50:00,0.04,2.80,0.00,24.58,27.97,30.71,14.60,49.09,1023.94,2025.99,2473.44,2398.00,2743.33,600.22,597.37,35.27,0000 0000 0000 0000 000000
2017-04-24 07:55:01,0.07,2.80,0.00,24.56,27.92,30.55,14.49,49.03,1023.95,2025.99,2472.25,2397.36,2742.75,600.01,597.14,35.32,0000 0000 0000 0000 000000
2017-04-24 08:00:02,0.04,2.81,0.00,24.58,27.88,30.51,14.46,49.02,1023.94,2026.05,2471.45,2396.99,2742.07,599.69,596.84,35.37,0000 0000 0000 0000 000000
2017-04-24 08:05:03,0.13,2.81,0.00,24.63,27.85,30.49,14.53,49.12,1023.94,2026.42,2470.50,2396.43,2741.54,599.93,596.95,35.42,0000 0000 0000 0000 000000
2017-04-24 08:10:05,0.07,2.82,0.00,24.65,27.82,30.48,14.55,49.04,1023.94,2026.88,2469.44,2395.94,2740.91,599.96,596.93,35.48,0000 0000 0000 0000 000000
2017-04-24 08:15:07,0.08,2.82,0.00,24.64,27.80,30.46,14.43,49.02,1023.94,2026.98,2468.59,2395.15,2740.09,599.88,596.72,35.53,0000 0000 0000 0000 000000
2017-04-24 08:20:08,0.06,2.82,0.00,24.65,27.77,30.45,14.39,48.89,1023.94,2026.99,2467.39,2394.79,2739.45,599.87,596.93,35.58,0000 0000 0000 0000 000000
2017-04-24 08:25:09,0.07,2.83,0.00,24.65,27.75,30.44,14.44,48.89,1023.92,2027.01,2466.06,2394.03,2738.54,599.79,596.84,35.63,0000 0000 0000 0000 000000
2017-04-24 08:30:10,0.06,2.83,0.00,24.65,27.75,30.43,14.48,48.94,1023.87,2027.03,2465.37,2393.51,2737.89,599.90,596.86,35.68,0000 0000 0000 0000 000000
2017-04-24 08:35:12,0.05,2.84,0.00,24.63,27.72,30.43,14.48,48.92,1023.83,2027.04,2464.37,2392.93,2737.09,599.96,596.94,35.73,0000 0000 0000 0000 000000
2017-04-24 08:40:13,0.08,2.84,0.00,24.65,27.72,30.43,14.53,48.84,1023.54,2027.06,2463.53,2392.10,2736.41,600.20,596.94,35.78,0000 0000 0000 0000 000000
2017-04-24 08:45:14,0.07,2.84,0.00,24.68,27.72,30.43,14.40,48.98,1023.48,2027.13,2462.54,2391.57,2735.77,599.52,596.31,35.83,0000 0000 0000 0000 000000
2017-04-24 08:50:16,0.08,2.85,0.00,24.65,27.71,30.43,14.46,48.86,1023.48,2027.31,2461.62,2390.96,2734.98,599.97,596.71,35.88,0000 0000 0000 0000 000000
2017-04-24 08:55:17,0.06,2.85,0.00,24.62,27.70,30.43,14.47,48.97,1023.48,2027.31,2460.78,2390.11,2734.12,600.13,596.91,35.93,0000 0000 0000 0000 000000
2017-04-24 09:00:18,0.07,2.85,0.00,24.60,27.70,30.44,14.53,48.91,1023.50,2027.36,2459.82,2389.52,2733.35,599.89,596.74,35.98,0000 0000 0000 0000 000000
2017-04-24 09:05:20,0.06,2.86,0.00,24.59,27.70,30.45,14.52,48.92,1023.57,2027.36,2458.74,2388.86,2732.54,600.35,597.32,36.03,0000 0000 0000 0000 000000
2017-04-24 09:10:21,0.07,2.86,0.00,24.59,27.70,30.45,14.54,48.93,1023.56,2027.45,2457.87,2388.06,2731.87,600.38,597.28,36.08,0000 0000 0000 0000 000000
2017-04-24 09:15:22,0.12,2.86,0.00,24.57,27.71,30.44,14.49,48.93,1023.63,2027.71,2456.61,2387.37,2730.98,600.05,596.97,36.13,0000 0000 0000 0000 000000
2017-04-24 09:20:24,0.08,2.87,0.00,24.57,27.72,30.45,14.49,48.89,1023.84,2027.89,2455.33,2386.72,2730.07,599.72,596.82,36.18,0000 0000 0000 0000 000000
2017-04-24 09:25:25,0.06,2.87,0.00,24.58,27.72,30.46,14.43,48.97,1023.90,2027.93,2454.34,2386.02,2729.20,599.92,597.06,36.23,0000 0000 0000 0000 000000
2017-04-24 09:30:26,0.03,2.88,0.00,24.57,27.72,30.45,14.55,48.94,1023.80,2027.74,2453.73,2385.31,2728.62,600.02,597.05,36.28,0000 0000 0000 0000 000000
2017-04-24 09:35:28,0.08,2.88,0.00,24.58,27.72,30.45,14.52,48.96,1023.83,2027.65,2452.59,2384.75,2727.79,600.18,597.33,36.33,0000 0000 0000 0000 000000
2017-04-24 09:40:29,0.02,2.88,0.00,24.57,27.72,30.46,14.43,49.01,1023.73,2027.56,2451.77,2384.04,2727.04,599.47,596.48,36.39,0000 0000 0000 0000 000000
2017-04-24 09:45:31,0.08,2.89,0.00,24.61,27.72,30.45,14.44,48.90,1023.71,2027.56,2450.84,2383.33,2726.16,599.82,596.83,36.44,0000 0000 0000 0000 000000
2017-04-24 09:50:32,0.07,2.89,0.00,24.59,27.72,30.46,14.53,48.98,1023.77,2027.54,2449.80,2382.64,2725.46,600.29,597.32,36.49,0000 0000 0000 0000 000000
2017-04-24 09:55:34,0.04,2.89,0.00,24.63,27.72,30.47,14.41,48.89,1023.80,2027.45,2448.93,2381.93,2724.60,599.99,597.12,36.54,0000 0000 0000 0000 000000
2017-04-24 10:00:35,0.07,2.89,0.00,24.63,27.72,30.47,14.52,49.02,1023.69,2027.17,2447.75,2381.02,2723.59,600.15,597.02,36.59,0000 0000 0000 0000 000000
2017-04-24 10:05:36,0.15,2.90,0.00,24.61,27.72,30.46,14.44,48.98,1023.59,2027.34,2445.90,2379.82,2722.19,600.29,597.16,36.64,0000 0000 0000 0000 000000
2017-04-24 10:10:37,0.08,2.91,0.00,24.62,27.72,30.47,14.50,48.96,1023.57,2027.21,2444.43,2378.52,2720.71,600.21,597.00,36.69,0000 0000 0000 0000 000000
2017-04-24 10:15:38,0.08,2.91,0.00,24.64,27.73,30.48,14.56,48.98,1023.53,2027.13,2443.36,2377.65,2719.71,599.93,596.72,36.74,0000 0000 0000 0000 000000
2017-04-24 10:20:40,0.04,2.91,0.00,24.64,27.73,30.47,14.42,48.99,1023.57,2027.10,2442.20,2376.99,2718.95,599.72,596.52,36.79,0000 0000 0000 0000 000000
2017-04-24 10:25:41,0.07,2.92,0.00,24.64,27.74,30.47,14.40,48.92,1023.49,2027.09,2441.22,2376.23,2718.09,600.16,596.91,36.84,0000 0000 0000 0000 000000
2017-04-24 10:30:42,0.06,2.92,0.00,24.65,27.74,30.47,14.45,48.96,1023.48,2027.07,2440.26,2375.69,2717.29,599.98,596.62,36.89,0000 0000 0000 0000 000000
2017-04-24 10:35:43,0.07,2.93,0.00,24.66,27.75,30.47,14.54,48.99,1023.52,2027.16,2439.28,2375.02,2716.73,600.19,596.89,36.94,0000 0000 0000 0000 000000
2017-04-24 10:40:44,0.06,2.93,0.00,24.65,27.75,30.49,14.44,48.96,1023.66,2027.10,2438.29,2374.32,2715.87,600.03,596.71,36.99,0000 0000 0000 0000 000000
2017-04-24 10:45:46,0.08,2.93,0.00,24.65,27.75,30.50,14.54,48.99,1023.59,2027.12,2437.00,2373.73,2714.95,600.30,597.09,37.04,0000 0000 0000 0000 000000
2017-04-24 10:50:47,0.05,2.94,0.00,24.65,27.75,30.48,14.42,48.97,1023.56,2027.11,2436.00,2373.02,2714.10,599.66,596.56,37.09,0000 0000 0000 0000 000000
2017-04-24 10:55:48,0.10,2.94,0.00,24.67,27.75,30.50,14.41,48.88,1023.64,2027.35,2435.14,2372.50,2713.53,599.70,596.62,37.14,0000 0000 0000 0000 000000
2017-04-24 11:00:49,0.03,2.94,0.00,24.67,27.75,30.48,14.52,48.86,1023.55,2027.28,2434.26,2371.91,2712.78,600.50,597.13,37.19,0000 0000 0000 0000 000000
2017-04-24 11:05:51,0.06,2.95,0.00,24.68,27.75,30.49,14.54,48.95,1023.48,2027.18,2433.23,2371.08,2711.96,600.21,596.89,37.24,0000 0000 0000 0000 000000
2017-04-24 11:10:52,0.08,2.95,0.00,24.69,27.75,30.48,14.50,48.87,1023.48,2027.25,2432.23,2370.50,2711.12,599.58,596.25,37.29,0000 0000 0000 0000 000000
2017-04-24 11:15:53,0.07,2.95,0.00,24.69,27.75,30.48,14.46,48.88,1023.47,2027.32,2431.30,2369.90,2710.33,599.92,596.52,37.34,0000 0000 0000 0000 000000
2017-04-24 11:20:54,0.07,2.96,0.00,24.69,27.75,30.50,14.49,48.89,1023.47,2027.33,2430.37,2369.11,2709.57,600.35,596.98,37.40,0000 0000 0000 0000 000000
2017-04-24 11:25:55,0.09,2.96,0.00,24.68,27.75,30.49,14.52,48.87,1023.45,2027.69,2429.57,2368.71,2708.98,600.36,596.99,37.45,0000 0000 0000 0000 000000
2017-04-24 11:30:57,0.05,2.97,0.00,24.67,27.75,30.49,14.46,48.86,1023.47,2027.65,2428.57,2367.97,2708.14,599.76,596.45,37.50,0000 0000 0000 0000 000000
2017-04-24 11:35:58,0.07,2.97,0.00,24.68,27.75,30.50,14.42,48.81,1023.46,2027.44,2427.59,2367.17,2707.33,599.70,596.32,37.55,0000 0000 0000 0000 000000
2017-04-24 11:40:59,0.03,2.97,0.00,24.69,27.75,30.50,14.49,48.89,1023.45,2027.36,2426.66,2366.85,2706.59,600.25,597.06,37.60,0000 0000 0000 0000 000000
2017-04-24 11:46:01,0.09,2.97,0.00,24.68,27.75,30.50,14.49,48.83,1023.45,2027.48,2425.68,2366.06,2705.80,600.27,596.93,37.65,0000 0000 0000 0000 000000
2017-04-24 11:51:02,0.09,2.98,0.00,24.70,27.75,30.50,14.45,48.86,1023.45,2027.67,2424.66,2365.42,2705.01,600.21,596.85,37.70,0000 0000 0000 0000 000000
2017-04-24 11:56:03,0.02,2.98,0.00,24.71,27.75,30.51,14.40,48.86,1023.45,2027.44,2423.72,2364.84,2704.16,599.31,595.93,37.75,0000 0000 0000 0000 000000
2017-04-24 12:01:05,0.10,2.99,0.00,24.71,27.75,30.50,14.46,48.83,1023.45,2027.58,2422.74,2364.06,2703.43,599.82,596.61,37.80,0000 0000 0000 0000 000000
2017-04-24 12:06:06,0.07,2.99,0.00,24.70,27.75,30.50,14.45,48.83,1023.45,2027.63,2421.81,2363.39,2702.72,600.21,596.83,37.85,0000 0000 0000 0000 000000
2017-04-24 12:11:08,0.04,2.99,0.00,24.72,27.75,30.49,14.48,48.87,1023.45,2027.45,2420.74,2362.74,2701.85,600.03,596.69,37.90,0000 0000 0000 0000 000000
2017-04-24 12:16:09,0.03,2.99,0.00,24.70,27.75,30.49,14.51,48.90,1023.44,2027.35,2419.86,2362.02,2701.04,599.83,596.42,37.95,0000 0000 0000 0000 000000
2017-04-24 12:21:10,0.11,3.00,0.00,24.72,27.75,30.51,14.45,48.88,1023.43,2027.49,2418.98,2361.36,2700.27,599.74,596.29,38.00,0000 0000 0000 0000 000000
2017-04-24 12:26:11,0.04,3.00,0.00,24.71,27.75,30.49,14.42,48.86,1023.28,2027.45,2418.02,2360.85,2699.62,599.49,596.04,38.05,0000 0000 0000 0000 000000
2017-04-24 12:31:12,0.05,3.00,0.00,24.70,27.75,30.50,14.46,48.83,1023.02,2027.30,2417.01,2360.04,2698.82,599.74,596.09,38.10,0000 0000 0000 0000 000000
2017-04-24 12:36:14,0.08,3.01,0.00,24.70,27.75,30.50,14.46,48.83,1023.00,2027.33,2416.02,2359.33,2697.93,599.81,595.98,38.15,0000 0000 0000 0000 000000
2017-04-24 12:41:15,0.08,3.01,0.00,24.72,27.75,30.52,14.48,48.80,1022.99,2027.35,2414.85,2358.57,2697.02,599.91,596.26,38.20,0000 0000 0000 0000 000000
2017-04-24 12:46:16,0.05,3.02,0.00,24.71,27.75,30.49,14.46,48.79,1022.96,2027.28,2413.88,2357.82,2696.14,599.86,596.15,38.25,0000 0000 0000 0000 000000
2017-04-24 12:51:17,0.07,3.02,0.00,24.70,27.75,30.49,14.44,48.82,1022.97,2027.11,2412.76,2356.97,2695.21,599.82,596.24,38.31,0000 0000 0000 0000 000000
2017-04-24 12:56:19,0.11,3.02,0.00,24.70,27.75,30.51,14.48,48.89,1022.97,2027.16,2411.56,2356.06,2694.23,599.84,596.28,38.36,0000 0000 0000 0000 000000